PROBA-1 1 26958U 01049B 26124.85640682 .00001014 00000+0 69732-4 0 9994 2 26958 97.9609 131.8793 0053393 269.5168 89.9940 15.07333080337095 CUTE-1 (CO-55) 1 27844U 03031E 26124.76399369 .00000292 00000+0 14551-3 0 9990 2 27844 98.6751 133.8676 0008659 317.3674 42.6832 14.24308570185492 CUBESAT XI-IV (CO-57) 1 27848U 03031J 26124.44959604 .00000228 00000+0 11926-3 0 9995 2 27848 98.6784 133.3051 0008917 338.3156 21.7644 14.23597038185159 APRIZESAT 4 1 35684U 09041D 26124.15576772 .00000794 00000+0 10114-3 0 9994 2 35684 98.1419 198.5993 0044683 104.1356 256.4829 14.83813802904837 APRIZESAT 3 1 35686U 09041F 26124.69464206 .00002496 00000+0 21971-3 0 9997 2 35686 98.2007 275.8530 0061255 209.4354 150.3411 14.96092365909875 PROBA-2 1 36037U 09059B 26124.49896044 .00000184 00000+0 53327-4 0 9997 2 36037 98.2449 308.4583 0014354 58.8945 301.3659 14.54843742875171 APRIZESAT 5 1 37792U 11044E 26124.76790774 .00000907 00000+0 12181-3 0 9991 2 37792 98.2442 56.5860 0053089 141.3541 219.1489 14.80986377792367 APRIZESAT 6 1 37793U 11044F 26124.71264758 .00000675 00000+0 10274-3 0 9998 2 37793 98.2386 34.3214 0042149 223.8427 166.4788 14.76856821790736 PROBA-V 1 39159U 13021A 26124.68302292 .00000069 00000+0 48407-4 0 9992 2 39159 98.3566 105.4437 0002951 257.4198 102.6652 14.23587597674924 APRIZESAT 7 1 39416U 13066A 26124.81549604 .00001687 00000+0 17245-3 0 9994 2 39416 97.7679 78.6702 0035848 357.7284 2.3766 14.91462491674769 APRIZESAT 8 1 39425U 13066K 26124.82391953 .00001226 00000+0 13849-3 0 9992 2 39425 97.8195 72.9083 0047438 69.2764 291.3528 14.87558430673228 BUGSAT-1 (TITA) 1 40014U 14033E 26124.85068420 .00005567 00000+0 29813-3 0 9996 2 40014 98.0408 214.8845 0027555 331.2145 28.7564 15.15152076649278 SAUDISAT 4 1 40016U 14033G 26124.36129245 .00000733 00000+0 10342-3 0 9994 2 40016 97.7524 272.0279 0044041 214.4833 145.3521 14.79479169639594 APRIZESAT 9 1 40018U 14033J 26124.63176531 .00000507 00000+0 82081-4 0 9995 2 40018 97.8995 258.9109 0065683 341.5026 18.3795 14.74164604637146 APRIZESAT 10 1 40019U 14033K 26124.79291544 .00000502 00000+0 86337-4 0 9998 2 40019 97.9586 252.7372 0079895 53.0274 307.8213 14.70844908635875 TECHDEMOSAT-1 (TDS-1) 1 40076U 14037H 26124.70618023 .00009303 00000+0 53628-3 0 9995 2 40076 98.3816 112.6390 0007835 63.7842 296.4191 15.12619473641652 TECHNOSAT 1 42829U 17042E 26124.82785274 .00002959 00000+0 21386-3 0 9994 2 42829 97.4248 284.1568 0016091 238.4978 121.4677 15.04697423480183 FLYING LAPTOP 1 42831U 17042G 26124.85368175 .00003599 00000+0 28652-3 0 9991 2 42831 97.4498 282.1137 0017718 271.7873 88.1322 15.00867980479956 HAWK-A 1 43765U 18099H 26124.56406986 .00007965 00000+0 32464-3 0 9999 2 43765 97.3944 177.3790 0036850 80.0731 280.4662 15.24091776406457 HAWK-B 1 43794U 18099AN 26124.66554350 .00006739 00000+0 29084-3 0 9993 2 43794 97.3992 176.9840 0034118 96.5576 263.9546 15.22312516406416 HAWK-C 1 43799U 18099AT 26124.57224560 .00009491 00000+0 34674-3 0 9994 2 43799 97.3916 178.0885 0042673 80.7347 279.8714 15.27438518407257 SALSAT 1 46495U 20068K 26124.50762341 .00008113 00000+0 28903-3 0 9994 2 46495 97.8860 124.9370 0011725 95.9608 264.2967 15.29157477308686 HAWK-2C 1 47502U 21006CT 26124.65388569 .00006572 00000+0 20111-3 0 9999 2 47502 97.2309 169.8412 0006771 12.7111 347.4302 15.34144340292820 HAWK-2A 1 47505U 21006CW 26124.65677303 .00006572 00000+0 20103-3 0 9990 2 47505 97.2352 170.4962 0006519 17.3697 342.7768 15.34156455292823 HAWK-2B 1 47508U 21006CZ 26124.65378436 .00007538 00000+0 23004-3 0 9994 2 47508 97.2222 168.8965 0006928 14.1776 345.9661 15.34177083292820 HAWK-3B 1 48931U 21059BE 26124.53784058 .00040195 00000+0 39168-3 0 9995 2 48931 97.6686 317.2373 0006173 126.6542 233.5286 15.66123576271010 HAWK-3C 1 48948U 21059BX 26124.79314682 .00040609 00000+0 39549-3 0 9996 2 48948 97.6823 323.1238 0006548 126.3574 233.8290 15.66133331271057 HAWK-3A 1 48957U 21059CG 26124.79300341 .00038791 00000+0 37800-3 0 9990 2 48957 97.6763 320.3643 0006190 126.1763 234.0069 15.66130591271052 HAWK-5C 1 52754U 22057Y 26124.67693810 .00019161 00000+0 34523-3 0 9991 2 52754 97.6541 281.6141 0004152 213.1852 146.9138 15.49835292219602 HAWK-5B 1 52756U 22057AA 26124.48308889 .00019370 00000+0 34896-3 0 9996 2 52756 97.6549 279.7520 0004394 210.9518 149.1474 15.49834675219571 HAWK-5A 1 52757U 22057AB 26124.48285739 .00019459 00000+0 35056-3 0 9992 2 52757 97.6544 280.5854 0004580 213.0573 147.0392 15.49832713219576 HAWK-6B 1 55324U 23011A 26124.70028101 .00005429 00000+0 23718-3 0 9993 2 55324 40.4990 245.6401 0001621 76.8282 283.2708 15.22551189181214 HAWK-6C 1 55326U 23011C 26124.69963598 .00005063 00000+0 22176-3 0 9992 2 55326 40.4976 242.4871 0002121 56.8083 303.2929 15.22552126181220 HAWK-6A 1 55327U 23011D 26124.69967738 .00005010 00000+0 21953-3 0 9997 2 55327 40.4988 244.1075 0001834 50.8666 309.2306 15.22550299181224 HAWK-7A 1 56191U 23054P 26124.66720045 .00005585 00000+0 21404-3 0 9997 2 56191 97.2750 13.1135 0003207 155.8639 204.2751 15.26906818170383 HAWK-7B 1 56193U 23054R 26124.66714346 .00005696 00000+0 21825-3 0 9996 2 56193 97.2776 11.3618 0002269 152.5239 207.6120 15.26907718170383 HAWK-7C 1 56200U 23054Y 26124.66703847 .00005639 00000+0 21611-3 0 9999 2 56200 97.2753 12.1441 0002760 146.3632 213.7783 15.26906812170381